User: anonymous   Login
Location: Caltech
(34.1382°N, 118.1253°W)
Time: 00:43:57
(UTC-07:00)
Language:

Cosmos 1833 Rocket - Orbit

View from above orbital plane
View from above orbital plane
View from above satellite
View from above satellite

Ground track
Ground track

The orbit data is extracted from the following two-line orbital elements,

1 17590U 87027B   18147.96668531 +.00000020 +00000-0 +34078-4 0  9999
2 17590 071.0008 143.9460 0003974 162.6740 197.4520 14.16756594612720
Epoch (UTC): 27 May 2018 23:12:01
Eccentricity: 0.0003974
inclination: 71.0008°
perigee height: 833 km
apogee height: 839 km
right ascension of ascending node: 143.9460°
argument of perigee: 162.6740°
revolutions per day: 14.16756594
mean anomaly at epoch: 197.4520°
orbit number at epoch: 61272

The dashed part of the orbit path shows where the satellite is in the earth's shadow,  

DLR